Hourly Weather Kozlowice

Today, 19 October, Monday

Time Temperature Precipitation Wind Pressure Humidity
00:00 +6°C° 0.1 mm 5 mps 746 mmHg 85%
01:00 +6°C° 0 mm 5 mps 746 mmHg 86%
02:00 +6°C° 0.1 mm 4 mps 746 mmHg 86%
03:00 +6°C° 0.1 mm 4 mps 746 mmHg 87%
04:00 +5°C° 0.1 mm 3 mps 747 mmHg 88%
05:00 +5°C° 0 mm 3 mps 747 mmHg 88%
06:00 +5°C° 0 mm 3 mps 747 mmHg 89%
07:00 +5°C° 0 mm 3 mps 747 mmHg 88%
08:00 +7°C° 0.1 mm 3 mps 748 mmHg 82%
09:00 +7°C° 0.1 mm 4 mps 748 mmHg 76%
10:00 +10°C° 0.1 mm 4 mps 749 mmHg 70%
11:00 +10°C° 0.1 mm 4 mps 748 mmHg 68%
12:00 +10°C° 0.1 mm 4 mps 748 mmHg 66%
13:00 +10°C° 0.1 mm 5 mps 748 mmHg 65%
14:00 +10°C° 0.1 mm 4 mps 748 mmHg 67%
15:00 +10°C° 0.1 mm 3 mps 748 mmHg 69%
16:00 +9°C° 0.1 mm 3 mps 748 mmHg 72%
17:00 +9°C° 0 mm 2 mps 748 mmHg 73%
18:00 +9°C° 0 mm 2 mps 749 mmHg 74%
19:00 +9°C° 0 mm 1 mps 749 mmHg 75%
20:00 +9°C° 0 mm 1 mps 749 mmHg 75%
21:00 +9°C° 0 mm 1 mps 749 mmHg 76%
22:00 +8°C° 0 mm 1 mps 749 mmHg 77%
23:00 +8°C° 0 mm 1 mps 750 mmHg 79%

Tomorrow, 20 October, Tuesday

Time Temperature Precipitation Wind Pressure Humidity
00:00 +8°C° 0 mm 1 mps 750 mmHg 81%
01:00 +7°C° 0 mm 1 mps 750 mmHg 83%
02:00 +7°C° 0 mm 1 mps 750 mmHg 84%
03:00 +6°C° 0 mm 2 mps 750 mmHg 85%
04:00 +5°C° 0 mm 2 mps 749 mmHg 86%
05:00 +5°C° 0 mm 2 mps 749 mmHg 84%
06:00 +4°C° 0 mm 3 mps 749 mmHg 83%
07:00 +4°C° 0 mm 3 mps 749 mmHg 82%
08:00 +7°C° 0 mm 3 mps 749 mmHg 77%
09:00 +7°C° 0 mm 4 mps 749 mmHg 71%
10:00 +9°C° 0 mm 5 mps 749 mmHg 66%
11:00 +10°C° 0 mm 6 mps 748 mmHg 63%
12:00 +11°C° 0 mm 6 mps 748 mmHg 61%
13:00 +12°C° 0 mm 7 mps 748 mmHg 58%
14:00 +11°C° 0 mm 7 mps 747 mmHg 61%
15:00 +11°C° 0 mm 6 mps 747 mmHg 63%
16:00 +10°C° 0 mm 6 mps 746 mmHg 65%
17:00 +10°C° 0 mm 6 mps 746 mmHg 66%
18:00 +10°C° 0 mm 7 mps 746 mmHg 66%
19:00 +9°C° 0 mm 7 mps 745 mmHg 67%
20:00 +9°C° 0 mm 7 mps 745 mmHg 67%
21:00 +9°C° 0 mm 8 mps 745 mmHg 66%
22:00 +9°C° 0 mm 8 mps 745 mmHg 65%
23:00 +9°C° 0 mm 8 mps 745 mmHg 66%

Day after tomorrow, 21 October, Wednesday

Time Temperature Precipitation Wind Pressure Humidity
00:00 +9°C° 0 mm 7 mps 745 mmHg 67%
01:00 +9°C° 0 mm 7 mps 745 mmHg 68%
02:00 +9°C° 0 mm 7 mps 744 mmHg 68%
03:00 +9°C° 0 mm 6 mps 744 mmHg 68%
04:00 +9°C° 0 mm 6 mps 744 mmHg 68%
05:00 +9°C° 0 mm 6 mps 744 mmHg 68%
06:00 +9°C° 0 mm 6 mps 744 mmHg 67%
07:00 +9°C° 0 mm 6 mps 744 mmHg 67%
08:00 +10°C° 0 mm 6 mps 744 mmHg 65%
09:00 +11°C° 0 mm 7 mps 743 mmHg 63%
10:00 +12°C° 0 mm 8 mps 743 mmHg 61%
11:00 +12°C° 0 mm 7 mps 743 mmHg 61%
12:00 +12°C° 0 mm 7 mps 743 mmHg 61%
13:00 +14°C° 0 mm 6 mps 743 mmHg 61%
14:00 +13°C° 0 mm 6 mps 743 mmHg 64%
15:00 +13°C° 0 mm 6 mps 743 mmHg 66%
16:00 +13°C° 0 mm 5 mps 742 mmHg 69%
17:00 +11°C° 0 mm 6 mps 742 mmHg 69%
18:00 +11°C° 0 mm 6 mps 743 mmHg 70%
19:00 +10°C° 0 mm 6 mps 743 mmHg 71%
20:00 +10°C° 0 mm 6 mps 743 mmHg 73%
21:00 +10°C° 0 mm 5 mps 743 mmHg 74%
22:00 +10°C° 0 mm 5 mps 743 mmHg 76%
23:00 +10°C° 0 mm 5 mps 743 mmHg 76%

22 October, Thursday

Time Temperature Precipitation Wind Pressure Humidity
00:00 +11°C° 0 mm 4 mps 744 mmHg 76%
01:00 +11°C° 0 mm 4 mps 744 mmHg 76%
02:00 +11°C° 0 mm 4 mps 744 mmHg 76%
03:00 +11°C° 0 mm 4 mps 744 mmHg 76%
04:00 +11°C° 0 mm 4 mps 744 mmHg 75%
05:00 +11°C° 0 mm 4 mps 744 mmHg 76%
06:00 +11°C° 0 mm 4 mps 744 mmHg 77%
07:00 +11°C° 0 mm 4 mps 744 mmHg 78%
08:00 +12°C° 0 mm 4 mps 745 mmHg 73%
09:00 +14°C° 0 mm 4 mps 745 mmHg 67%
10:00 +15°C° 0 mm 4 mps 745 mmHg 62%
11:00 +17°C° 0 mm 4 mps 745 mmHg 60%
12:00 +19°C° 0 mm 4 mps 744 mmHg 57%
13:00 +20°C° 0 mm 4 mps 744 mmHg 55%
14:00 +19°C° 0 mm 4 mps 744 mmHg 59%
15:00 +18°C° 0 mm 4 mps 744 mmHg 63%
16:00 +17°C° 0 mm 3 mps 744 mmHg 67%
17:00 +16°C° 0 mm 3 mps 744 mmHg 70%
18:00 +14°C° 0 mm 4 mps 744 mmHg 74%
19:00 +13°C° 0 mm 4 mps 744 mmHg 77%
20:00 +13°C° 0 mm 4 mps 744 mmHg 78%
21:00 +13°C° 0 mm 4 mps 744 mmHg 78%
22:00 +12°C° 0 mm 4 mps 744 mmHg 79%
23:00 +12°C° 0 mm 3 mps 744 mmHg 78%

23 October, Friday

Time Temperature Precipitation Wind Pressure Humidity
00:00 +12°C° 0 mm 3 mps 744 mmHg 77%
01:00 +12°C° 0 mm 3 mps 743 mmHg 76%
02:00 +12°C° 0 mm 3 mps 743 mmHg 75%
03:00 +12°C° 0 mm 4 mps 743 mmHg 75%
04:00 +12°C° 0 mm 4 mps 743 mmHg 74%
05:00 +12°C° 0 mm 4 mps 742 mmHg 75%
06:00 +12°C° 0 mm 4 mps 742 mmHg 75%
07:00 +12°C° 0 mm 4 mps 742 mmHg 76%
08:00 +13°C° 0 mm 4 mps 742 mmHg 73%
09:00 +14°C° 0 mm 4 mps 742 mmHg 70%
10:00 +15°C° 0 mm 4 mps 742 mmHg 67%
11:00 +17°C° 0 mm 4 mps 742 mmHg 65%
12:00 +18°C° 0 mm 4 mps 742 mmHg 64%
13:00 +19°C° 0 mm 4 mps 742 mmHg 62%
14:00 +18°C° 0 mm 3 mps 741 mmHg 66%
15:00 +17°C° 0 mm 2 mps 741 mmHg 70%
16:00 +17°C° 0 mm 2 mps 741 mmHg 74%
17:00 +16°C° 0 mm 2 mps 741 mmHg 77%
18:00 +15°C° 0 mm 2 mps 742 mmHg 80%
19:00 +14°C° 0 mm 2 mps 742 mmHg 83%
20:00 +14°C° 0 mm 2 mps 742 mmHg 84%
21:00 +14°C° 0 mm 2 mps 742 mmHg 84%
22:00 +13°C° 0 mm 3 mps 742 mmHg 84%
23:00 +13°C° 0 mm 3 mps 742 mmHg 85%

24 October, Saturday

Time Temperature Precipitation Wind Pressure Humidity
00:00 +13°C° 0 mm 3 mps 742 mmHg 86%
01:00 +12°C° 0 mm 3 mps 742 mmHg 87%
02:00 +13°C° 0.1 mm 2 mps 742 mmHg 88%
03:00 +13°C° 0.1 mm 2 mps 742 mmHg 90%
04:00 +13°C° 0.1 mm 2 mps 742 mmHg 92%
05:00 +13°C° 0.5 mm 2 mps 742 mmHg 93%
06:00 +13°C° 0.5 mm 2 mps 742 mmHg 95%
07:00 +13°C° 0.5 mm 2 mps 742 mmHg 97%
08:00 +13°C° 0.6 mm 2 mps 743 mmHg 96%
09:00 +14°C° 0.6 mm 2 mps 743 mmHg 96%
10:00 +14°C° 0.6 mm 2 mps 743 mmHg 95%
11:00 +13°C° 0.1 mm 3 mps 743 mmHg 92%
12:00 +14°C° 0.1 mm 3 mps 744 mmHg 88%
13:00 +14°C° 0.1 mm 3 mps 744 mmHg 85%
14:00 +14°C° 0 mm 3 mps 744 mmHg 84%
15:00 +15°C° 0 mm 2 mps 744 mmHg 83%
16:00 +14°C° 0 mm 2 mps 744 mmHg 82%
17:00 +14°C° 0 mm 2 mps 745 mmHg 85%
18:00 +13°C° 0 mm 2 mps 745 mmHg 88%
19:00 +12°C° 0 mm 2 mps 745 mmHg 90%
20:00 +10°C° 0 mm 2 mps 746 mmHg 91%
21:00 +10°C° 0 mm 2 mps 746 mmHg 91%
22:00 +10°C° 0 mm 2 mps 747 mmHg 92%
23:00 +9°C° 0 mm 2 mps 747 mmHg 93%

25 October, Sunday

Time Temperature Precipitation Wind Pressure Humidity
00:00 +10°C° 0 mm 1 mps 747 mmHg 94%
01:00 +9°C° 0 mm 1 mps 747 mmHg 95%
02:00 +9°C° 0 mm 1 mps 747 mmHg 94%
03:00 +9°C° 0 mm 1 mps 747 mmHg 94%
04:00 +7°C° 0 mm 0 mps 747 mmHg 94%
05:00 +7°C° 0 mm 0 mps 747 mmHg 93%
06:00 +7°C° 0 mm 0 mps 747 mmHg 92%
07:00 +7°C° 0 mm 0 mps 747 mmHg 92%
08:00 +9°C° 0 mm 1 mps 748 mmHg 86%
09:00 +11°C° 0 mm 1 mps 748 mmHg 80%
10:00 +12°C° 0 mm 1 mps 748 mmHg 74%
11:00 +13°C° 0 mm 2 mps 747 mmHg 71%
12:00 +13°C° 0 mm 2 mps 747 mmHg 68%
13:00 +14°C° 0 mm 2 mps 747 mmHg 65%
14:00 +13°C° 0 mm 2 mps 747 mmHg 68%
15:00 +13°C° 0 mm 2 mps 746 mmHg 72%
16:00 +13°C° 0 mm 2 mps 746 mmHg 75%
17:00 +12°C° 0 mm 2 mps 746 mmHg 79%
18:00 +10°C° 0 mm 3 mps 746 mmHg 83%
19:00 +9°C° 0 mm 3 mps 746 mmHg 86%
20:00 +9°C° 0 mm 3 mps 746 mmHg 87%
21:00 +9°C° 0 mm 3 mps 746 mmHg 88%
22:00 +8°C° 0 mm 3 mps 745 mmHg 89%
23:00 +8°C° 0 mm 3 mps 745 mmHg 90%
Show more